[[{"header":{"parameterUnit":"m.s-1","parameterCategory":1,"la1":30.2991,"la2":30.254,"lo1":-89.0895,"lo2":-89.0444,"dy":0.0017,"dx":0.0017,"nx":28,"ny":28,"refTime":"2026-02-27T03:00:00:Z","depth":0,"parameterNumber":2,"parameterNumberName":"U-component_of_WINDS"},"data":[0,0,0,0,0,0,0,0,0,0,0,0,0,0,0,0,0,0,0,0,0,0,0,0,0,0,0,0,0,0,0,0,0,0,0,0,0,0,0,0,0,0,0,0,0,0,0,0,0,0,0,0,0,0,0,0,0,0,-1.2822,-1.2822,0,-1.2823,-1.2823,-1.2823,-1.2828,-1.2828,-1.2828,-1.2828,-1.2831,-1.2831,-1.2831,0,0,0,0,0,0,0,0,0,0,0,0,0,-1.2826,-1.2826,-1.2822,-1.2822,-1.2822,-1.2823,-1.2823,-1.2823,-1.2828,-1.2828,-1.2828,-1.2828,-1.2831,-1.2831,-1.2831,0,0,0,0,0,0,0,0,0,0,0,0,0,-1.2826,-1.2826,-1.2822,-1.2825,-1.2825,-1.2823,-1.2823,-1.2823,-1.2828,-1.2828,-1.2828,-1.2828,-1.2831,-1.2831,-1.2831,-1.2827,0,0,-1.283,-1.283,0,0,0,0,0,0,0,0,-1.2826,-1.2826,-1.2824,-1.2824,-1.2825,-1.2826,-1.2826,-1.2825,-1.2828,-1.2827,-1.2828,-1.2828,-1.2829,-1.2829,-1.2829,-1.2827,-1.2827,-1.283,-1.283,-1.283,-1.283,0,0,0,0,0,0,0,-1.2826,-1.2826,-1.2823,-1.2824,-1.2825,-1.2826,-1.2827,-1.2825,-1.2827,-1.2827,-1.2827,-1.2827,-1.2829,-1.2829,-1.2829,-1.2827,-1.283,-1.283,-1.283,-1.283,-1.2824,-1.2824,0,0,0,0,0,0,-1.2825,-1.2826,-1.2823,-1.2823,-1.2826,-1.2826,-1.2826,-1.2825,-1.2827,-1.2827,-1.2827,-1.2827,-1.2829,-1.2829,-1.2829,-1.2826,-1.283,-1.283,-1.283,-1.2825,-1.2824,-1.2824,0,0,0,0,0,0,-1.2825,-1.2825,-1.2823,-1.2824,-1.2824,-1.2826,-1.2825,-1.2825,-1.2825,-1.2827,-1.2828,-1.2827,-1.2829,-1.2829,-1.2828,-1.2826,-1.283,-1.283,-1.2825,-1.2825,-1.2824,-1.2819,0,0,0,0,0,0,-1.2825,-1.2825,-1.2823,-1.2824,-1.2824,-1.282,-1.2825,-1.2825,-1.2825,-1.2825,-1.2827,-1.2827,-1.2829,-1.2828,-1.2828,-1.2826,-1.283,-1.2825,-1.2825,-1.2824,-1.2819,-1.2818,-1.2818,0,0,0,0,0,-1.2826,-1.2821,-1.2823,-1.2822,-1.2821,-1.282,-1.282,-1.2822,-1.2824,-1.2823,-1.2825,-1.2827,-1.2826,-1.2828,-1.2828,-1.2826,-1.2825,-1.2825,-1.2824,-1.2819,-1.2819,-1.2818,0,0,0,0,0,0,-1.282,-1.2821,-1.2823,-1.2819,-1.282,-1.2821,-1.2819,-1.2821,-1.2821,-1.2822,-1.2825,-1.2825,-1.2824,-1.2825,-1.2826,-1.2823,-1.2826,-1.2826,-1.2822,-1.2822,-1.2821,-1.2821,-1.283,0,0,0,0,0,-1.2818,-1.2817,-1.2818,-1.2815,-1.2815,-1.2817,-1.2817,-1.2818,-1.2819,-1.2819,-1.2821,-1.2822,-1.2822,-1.2822,-1.2822,-1.282,-1.2821,-1.2819,-1.2818,-1.2817,-1.2817,-1.2817,-1.2816,-1.2823,-1.2823,-1.2823,0,0,-1.2815,-1.2815,-1.2814,-1.2814,-1.2814,-1.2813,-1.2817,-1.2815,-1.2815,-1.2819,-1.2818,-1.2819,-1.2821,-1.2819,-1.2818,-1.282,-1.2815,-1.2817,-1.2817,-1.2816,-1.2816,-1.2816,-1.2815,-1.2823,-1.2823,-1.2823,0,0,-1.2808,-1.2808,-1.2805,-1.2806,-1.2807,-1.2808,-1.2808,-1.2809,-1.281,-1.2809,-1.2812,-1.2813,-1.2812,-1.2814,-1.2814,-1.2809,-1.2812,-1.281,-1.2806,-1.2806,-1.2805,-1.2805,-1.2804,-1.2803,-1.2809,-1.2809,-1.2809,0,-1.2803,-1.2801,-1.2803,-1.2802,-1.2802,-1.2806,-1.2804,-1.2805,-1.2806,-1.2806,-1.2808,-1.2808,-1.281,-1.2809,-1.2808,-1.2808,-1.2808,-1.2809,-1.2805,-1.2805,-1.2804,-1.2803,-1.2803,-1.2809,-1.2809,-1.2809,-1.2809,0,-1.2796,-1.2795,-1.2792,-1.2793,-1.2793,-1.2791,-1.2795,-1.2794,-1.2797,-1.2799,-1.2798,-1.28,-1.2801,-1.2801,-1.2803,-1.2801,-1.2802,-1.2804,-1.2807,-1.2803,-1.2802,-1.2802,-1.2809,-1.2809,-1.2809,-1.2809,0,0,-1.2784,-1.2787,-1.2786,-1.2787,-1.2789,-1.2789,-1.2788,-1.2789,-1.2789,-1.279,-1.279,-1.279,-1.2793,-1.2794,-1.2796,-1.2796,-1.2793,-1.2799,-1.2799,-1.2798,-1.2792,-1.279,-1.2789,-1.2795,-1.2795,-1.2795,-1.2792,0,-1.2778,-1.2775,-1.2778,-1.2776,-1.2775,-1.278,-1.2779,-1.2781,-1.2783,-1.2784,-1.2786,-1.2787,-1.279,-1.279,-1.2791,-1.2793,-1.2792,-1.2794,-1.2796,-1.2796,-1.2795,-1.2789,-1.2786,-1.2783,-1.2791,-1.2791,-1.2791,0,-1.2769,-1.277,-1.2767,-1.2771,-1.277,-1.277,-1.2772,-1.2772,-1.2774,-1.2776,-1.2778,-1.2781,-1.2781,-1.2784,-1.2786,-1.2787,-1.2788,-1.279,-1.279,-1.279,-1.2793,-1.2789,-1.2782,-1.2782,-1.2791,-1.2791,-1.2791,0,-1.2761,-1.2762,-1.2761,-1.2761,-1.2765,-1.2764,-1.2766,-1.2769,-1.277,-1.2771,-1.2772,-1.2774,-1.2775,-1.2777,-1.2782,-1.2783,-1.2783,-1.2786,-1.2785,-1.2785,-1.2784,-1.2784,-1.2777,-1.2785,-1.2785,-1.2785,-1.2785,0,-1.2754,-1.2752,-1.2757,-1.2756,-1.2755,-1.2759,-1.2758,-1.276,-1.2763,-1.2764,-1.2768,-1.2768,-1.2774,-1.2775,-1.2779,-1.278,-1.278,-1.2782,-1.2783,-1.2782,-1.2781,-1.2782,-1.2783,-1.2785,-1.2785,-1.2785,-1.2785,0,-1.2744,-1.2748,-1.2747,-1.275,-1.2752,-1.2751,-1.2754,-1.2754,-1.2757,-1.2758,-1.2758,-1.2763,-1.2765,-1.277,-1.2773,-1.2775,-1.2776,-1.2777,-1.2775,-1.2775,-1.2774,-1.2774,-1.2768,-1.2767,-1.2775,-1.2775,-1.2775,0,-1.2739,-1.2738,-1.2742,-1.2742,-1.2744,-1.2744,-1.2745,-1.275,-1.2751,-1.2755,-1.2755,-1.2757,-1.2759,-1.2763,-1.2767,-1.277,-1.2772,-1.2769,-1.2772,-1.2771,-1.2772,-1.2772,-1.2772,-1.2768,-1.2768,-1.2768,-1.2768,0,-1.2729,-1.2731,-1.2732,-1.2734,-1.2735,-1.2737,-1.2739,-1.274,-1.2745,-1.2746,-1.2748,-1.275,-1.2754,-1.2757,-1.276,-1.2763,-1.2767,-1.2767,-1.2767,-1.2766,-1.2765,-1.2766,-1.2773,-1.2767,-1.2767,-1.2768,-1.2768,-1.2768,-1.2722,-1.2722,-1.2725,-1.2726,-1.2728,-1.273,-1.2731,-1.2734,-1.2736,-1.2739,-1.2742,-1.2744,-1.2748,-1.2754,-1.2757,-1.2759,-1.2761,-1.276,-1.276,-1.276,-1.276,-1.2764,-1.276,-1.276,-1.276,-1.276,-1.276,0,-1.2713,-1.2715,-1.2717,-1.272,-1.2721,-1.2724,-1.2727,-1.2729,-1.273,-1.2734,-1.2736,-1.2739,-1.2742,-1.2747,-1.2751,-1.2752,-1.2754,-1.2753,-1.2753,-1.2753,-1.2758,-1.2758,-1.2751,-1.2751,-1.2751,-1.2751,-1.2751,-1.2751,-1.2708,-1.2708,-1.2711,-1.2712,-1.2715,-1.2717,-1.2718,-1.2721,-1.2724,-1.2727,-1.2729,-1.2733,-1.2737,-1.2742,-1.2745,-1.2746,-1.2748,-1.2746,-1.2748,-1.2752,-1.2753,-1.2754,-1.2754,-1.2746,-1.2746,-1.2744,-1.2744,-1.2744]},{"header":{"parameterUnit":"m.s-1","parameterCategory":1,"la1":30.2991,"la2":30.254,"lo1":-89.0895,"lo2":-89.0444,"dy":0.0017,"dx":0.0017,"nx":28,"ny":28,"refTime":"2026-02-27T03:00:00:Z","depth":0,"parameterNumber":3,"parameterNumberName":"V-component_of_WINDS"},"data":[0,0,0,0,0,0,0,0,0,0,0,0,0,0,0,0,0,0,0,0,0,0,0,0,0,0,0,0,0,0,0,0,0,0,0,0,0,0,0,0,0,0,0,0,0,0,0,0,0,0,0,0,0,0,0,0,0,0,-0.7027,-0.7026,0,-0.6885,-0.6883,-0.6882,-0.6782,-0.6781,-0.678,-0.6779,-0.6631,-0.6628,-0.6625,0,0,0,0,0,0,0,0,0,0,0,0,0,-0.7212,-0.7209,-0.7028,-0.7026,-0.7024,-0.6885,-0.6883,-0.6881,-0.6782,-0.6781,-0.678,-0.6779,-0.6633,-0.6629,-0.6625,0,0,0,0,0,0,0,0,0,0,0,0,0,-0.7107,-0.7208,-0.7028,-0.6958,-0.695,-0.6886,-0.6883,-0.6881,-0.6782,-0.6781,-0.678,-0.6779,-0.6634,-0.6629,-0.6624,-0.6618,0,0,-0.661,-0.6607,0,0,0,0,0,0,0,0,-0.7113,-0.71,-0.697,-0.6962,-0.6954,-0.685,-0.6894,-0.6792,-0.6782,-0.6846,-0.6779,-0.6778,-0.6705,-0.6694,-0.667,-0.6611,-0.6604,-0.6609,-0.6606,-0.6604,-0.6603,0,0,0,0,0,0,0,-0.712,-0.7106,-0.6971,-0.6968,-0.6958,-0.6933,-0.6916,-0.6874,-0.6784,-0.684,-0.6833,-0.6817,-0.67,-0.6675,-0.6666,-0.6602,-0.6609,-0.6605,-0.6602,-0.66,-0.6531,-0.6532,0,0,0,0,0,0,-0.7139,-0.7112,-0.6975,-0.6967,-0.7032,-0.693,-0.6912,-0.6884,-0.6784,-0.6767,-0.6818,-0.6813,-0.6684,-0.6671,-0.666,-0.6646,-0.6604,-0.66,-0.6597,-0.653,-0.6531,-0.6532,0,0,0,0,0,0,-0.7143,-0.7128,-0.6981,-0.7037,-0.7017,-0.6928,-0.6898,-0.6882,-0.6857,-0.6767,-0.675,-0.6809,-0.6682,-0.6667,-0.6629,-0.664,-0.6597,-0.6593,-0.6528,-0.653,-0.6532,-0.6619,0,0,0,0,0,0,-0.7149,-0.713,-0.7127,-0.7038,-0.7014,-0.6954,-0.6899,-0.688,-0.6849,-0.6841,-0.6754,-0.6739,-0.668,-0.6637,-0.6624,-0.6633,-0.6589,-0.6527,-0.6529,-0.6531,-0.6615,-0.6624,-0.6631,0,0,0,0,0,-0.7156,-0.7156,-0.7127,-0.7111,-0.7009,-0.6955,-0.6941,-0.6874,-0.685,-0.6846,-0.6789,-0.6741,-0.6641,-0.6634,-0.6619,-0.6626,-0.6526,-0.6529,-0.6531,-0.6611,-0.6622,-0.6631,0,0,0,0,0,0,-0.7248,-0.7143,-0.711,-0.7082,-0.7028,-0.6938,-0.6931,-0.6887,-0.6838,-0.6833,-0.6751,-0.6732,-0.6703,-0.666,-0.6655,-0.6614,-0.6578,-0.6577,-0.6644,-0.6653,-0.6661,-0.6673,-0.6585,0,0,0,0,0,-0.7265,-0.723,-0.714,-0.7125,-0.7099,-0.702,-0.6994,-0.6947,-0.6888,-0.6864,-0.6804,-0.6747,-0.6703,-0.6675,-0.6629,-0.6608,-0.6588,-0.6605,-0.6613,-0.662,-0.6621,-0.6607,-0.6614,-0.654,-0.654,-0.654,0,0,-0.73,-0.7238,-0.7221,-0.7142,-0.7094,-0.706,-0.7001,-0.6967,-0.6941,-0.6858,-0.682,-0.6774,-0.6705,-0.6676,-0.666,-0.6639,-0.6637,-0.6623,-0.6629,-0.6626,-0.6611,-0.6618,-0.6624,-0.6542,-0.6541,-0.6541,0,0,-0.7346,-0.7296,-0.7278,-0.7232,-0.7161,-0.7108,-0.7104,-0.702,-0.6987,-0.6947,-0.6885,-0.6852,-0.6777,-0.6731,-0.6698,-0.6727,-0.6682,-0.6714,-0.6756,-0.6744,-0.675,-0.6755,-0.6767,-0.6772,-0.6715,-0.6715,-0.6715,0,-0.7398,-0.7345,-0.7274,-0.7244,-0.7211,-0.7135,-0.7116,-0.7074,-0.6992,-0.6971,-0.6949,-0.6854,-0.6802,-0.6762,-0.6769,-0.6744,-0.6737,-0.6724,-0.6755,-0.6759,-0.6763,-0.6773,-0.6777,-0.672,-0.6719,-0.6719,-0.6718,0,-0.7413,-0.7377,-0.737,-0.7294,-0.726,-0.7236,-0.7161,-0.7134,-0.7091,-0.704,-0.7001,-0.6936,-0.6876,-0.6863,-0.6819,-0.6816,-0.6806,-0.6771,-0.6732,-0.6775,-0.6784,-0.6787,-0.6726,-0.6725,-0.6723,-0.6722,0,0,-0.7514,-0.7399,-0.7398,-0.7363,-0.728,-0.725,-0.7222,-0.7164,-0.7144,-0.7089,-0.7064,-0.7003,-0.697,-0.6932,-0.6883,-0.6872,-0.6901,-0.6837,-0.6835,-0.6853,-0.6895,-0.6924,-0.6929,-0.687,-0.687,-0.6871,-0.6901,0,-0.7548,-0.7496,-0.7431,-0.74,-0.7366,-0.7294,-0.7269,-0.7215,-0.7168,-0.7131,-0.7077,-0.7036,-0.6995,-0.6972,-0.6958,-0.6901,-0.6909,-0.6897,-0.6846,-0.6845,-0.6868,-0.6933,-0.6963,-0.6995,-0.6904,-0.6904,-0.6905,0,-0.7582,-0.7533,-0.7499,-0.742,-0.7403,-0.7383,-0.7325,-0.7291,-0.7228,-0.7194,-0.7153,-0.7099,-0.7066,-0.7031,-0.6984,-0.6978,-0.6953,-0.6922,-0.6922,-0.6915,-0.6879,-0.693,-0.7003,-0.7009,-0.6909,-0.6909,-0.6908,0,-0.7661,-0.7586,-0.7557,-0.7529,-0.7435,-0.7422,-0.7382,-0.7318,-0.7288,-0.7237,-0.7217,-0.7162,-0.7133,-0.7092,-0.7026,-0.7006,-0.6986,-0.6946,-0.6957,-0.6959,-0.6958,-0.6959,-0.7029,-0.6939,-0.6939,-0.6939,-0.6939,0,-0.7708,-0.769,-0.7591,-0.7573,-0.7551,-0.7477,-0.7457,-0.741,-0.7354,-0.7325,-0.7258,-0.7233,-0.7146,-0.711,-0.7058,-0.7028,-0.7014,-0.6986,-0.6973,-0.6993,-0.6997,-0.6977,-0.6973,-0.694,-0.694,-0.694,-0.694,0,-0.7793,-0.7726,-0.7689,-0.7603,-0.7581,-0.7569,-0.7496,-0.7475,-0.7423,-0.7388,-0.7375,-0.7294,-0.7248,-0.7177,-0.711,-0.7075,-0.7054,-0.7031,-0.7076,-0.7068,-0.7085,-0.7085,-0.7146,-0.715,-0.7057,-0.7058,-0.7059,0,-0.7828,-0.7813,-0.7726,-0.7703,-0.7666,-0.7628,-0.7598,-0.7523,-0.7494,-0.7421,-0.741,-0.7359,-0.7315,-0.7245,-0.7179,-0.7128,-0.7104,-0.7129,-0.7096,-0.7117,-0.7106,-0.7109,-0.7107,-0.7137,-0.7139,-0.714,-0.7141,0,-0.7898,-0.7865,-0.7824,-0.7771,-0.7737,-0.7691,-0.7642,-0.7627,-0.7541,-0.7512,-0.7465,-0.743,-0.7362,-0.7313,-0.7253,-0.721,-0.7162,-0.7151,-0.7152,-0.7173,-0.7201,-0.7187,-0.7099,-0.7151,-0.715,-0.7149,-0.7148,-0.7148,-0.796,-0.7944,-0.788,-0.7837,-0.7792,-0.7748,-0.7726,-0.7671,-0.7631,-0.7571,-0.7529,-0.7485,-0.7422,-0.7336,-0.7296,-0.7261,-0.7239,-0.7239,-0.724,-0.7241,-0.725,-0.7205,-0.7249,-0.7249,-0.7248,-0.7248,-0.7248,0,-0.8027,-0.7983,-0.7944,-0.7878,-0.7844,-0.7801,-0.7745,-0.7719,-0.7682,-0.7628,-0.7586,-0.7532,-0.7484,-0.7415,-0.7361,-0.7346,-0.7323,-0.7335,-0.7336,-0.7327,-0.7271,-0.7277,-0.7355,-0.7355,-0.7355,-0.7355,-0.7355,-0.7355,-0.8059,-0.803,-0.799,-0.7938,-0.7893,-0.7851,-0.7822,-0.7782,-0.7738,-0.7682,-0.7642,-0.7597,-0.7537,-0.7479,-0.7433,-0.7414,-0.7398,-0.7418,-0.7392,-0.7341,-0.7331,-0.7322,-0.7327,-0.7415,-0.7415,-0.7452,-0.7452,-0.7452]}]]